Portada
METAR-TAF:

METAR-TAF

Aeropuertos :

Base aérea

Tafraoui, Argelia

latitud: 35-32-33N, longitud: 000-31-56W, altitud: 112 m

Observación

El informe se hizo hace 1 hora y 36 minutos, a las 02:00 UTC
Viento 14 kt del oeste
Temperatura 19°C
Humedad 100%
Presión 1013 hPa
Visibilidad: 7000 m
Cielo nuboso a una altura de 2600 ft

METAR: DAOL 250200Z 26014KT 7000 BKN026 19/19 Q1013

Hora: 04:36 (03:36 UTC)


TAF: falta

Observaciones y pronósticos meteorológicos de más de 4000 aeropuertos (mensajes METAR y TAF).

Los puntos amarillos y rojos representan las estaciones disponibles.

Ponga el ratón en el punto deseado para ver el nombre de la estación.

Haga clic para ver las observaciones y los pronósticos meteorológicos.

Para cambiar el mapa : haga clic en los botones verdes con una cruz de color negro para hacer un zoom, en el botón verde con un guión para alejar o en las flechas verdes para mapas adyacentes.


METAR-TAF: